Location: *
(38.9555°S, 57.3572°E)
Time: 01:25:35
(UTC+00:00)

Cosmos 2237 Rocket - Pass Details

Date: 15 July 2020
Orbit: 834 x 850 km, 71.0° (Epoch: 06 August)

Event Time Altitude Azimuth Distance (km) Brightness Sun altitude
Rises 14:10:40 0° 200° (SSW) 3,424 5.4 -12.1°
Reaches altitude 10° 14:13:09 10° 197° (SSW) 2,485 4.6 -12.6°
Maximum altitude 14:18:50 64° 115° (ESE) 938 2.2 -13.7°
Drops below altitude 10° 14:24:27 10° 33° (NNE) 2,467 4.5 -14.7°
Sets 14:26:55 0° 30° (NNE) 3,397 5.2 -15.2°
